Theta_e
306 306 307 307 308 309 311 311 312 313 315 317 318 320 321 321 321 321 321 321 320 320 320 320 320 321 321 321 321 321 321 321 321 321 321 321 322 322 322 322 322 323 323 323 324 324 324 324 325 325 325 326 326 327 327 326 326 326 326 328 330 331 331 331 331 331 331 331 331 331 331 332 332 331 331 330 329 329 329 329 329 328 328 328 327 327
303 303 304 304 305 306 307 308 308 309 310 312 313 315 318 320 321 321 321 321 321 321 320 320 320 320 320 320 320 321 321 321 321 321 321 321 321 321 322 322 322 322 322 322 323 323 324 324 324 325 325 325 326 326 326 325 325 325 325 327 329 330 330 331 331 331 331 331 331 331 332 332 332 332 331 331 330 330 329 329 329 329 328 328 328 327
301 301 302 302 303 303 304 305 305 306 307 308 309 311 313 316 319 321 321 321 321 321 321 320 320 320 320 320 320 320 320 321 321 321 321 321 321 321 321 321 321 322 322 322 322 323 323 323 324 324 325 325 325 324 325 325 325 325 325 326 327 328 330 330 331 331 331 331 331 331 332 332 332 332 332 331 331 330 330 330 329 329 329 328 328 328
300 300 301 301 301 302 302 303 303 304 305 306 306 308 310 313 316 319 320 321 321 321 321 321 321 320 320 320 320 320 320 320 321 321 321 321 321 321 321 321 321 321 322 322 322 322 322 323 323 324 324 324 324 324 324 324 324 325 325 326 327 327 328 329 330 331 331 332 332 332 332 333 333 333 332 332 331 331 330 330 330 329 329 329 328 328
299 300 300 300 300 301 301 302 303 304 304 304 305 306 307 310 312 315 318 320 321 321 321 321 321 320 320 320 320 320 320 320 320 320 320 321 321 321 321 321 321 321 322 322 322 322 322 322 323 323 324 324 324 323 324 324 324 325 326 326 327 327 327 328 329 329 330 331 331 332 332 332 333 333 333 332 331 330 330 330 330 330 330 329 329 328
299 299 299 299 300 300 300 301 302 303 304 304 303 304 305 306 308 310 314 317 320 321 321 321 321 320 320 320 320 320 320 320 320 320 320 320 320 321 321 321 321 321 322 322 322 321 321 321 322 322 323 323 323 323 323 324 324 325 326 326 327 327 327 327 327 327 328 328 329 330 331 331 332 333 333 332 330 328 328 329 330 330 330 329 328 328
298 299 299 299 299 299 300 301 302 303 303 303 302 302 303 303 303 304 306 310 314 317 319 320 320 321 321 321 320 320 320 320 320 320 320 320 320 320 320 321 321 321 321 321 321 321 321 321 321 321 322 322 323 323 323 323 324 324 325 326 326 327 326 326 326 326 326 326 326 327 328 329 331 332 332 331 329 327 327 328 329 329 330 328 327 327
298 298 298 298 299 299 299 300 301 302 302 301 301 301 301 300 300 300 301 303 305 307 309 311 313 315 317 319 320 321 320 320 320 320 320 320 320 320 320 320 320 321 321 320 320 320 320 320 321 321 321 322 322 322 322 323 323 324 325 325 326 326 325 325 324 324 324 324 324 325 326 327 328 329 331 331 330 329 328 328 328 329 329 327 326 326
297 297 298 298 298 299 299 300 301 302 301 299 299 299 299 298 298 298 299 300 300 301 302 302 303 305 307 310 313 317 319 320 320 320 320 320 320 320 320 320 320 320 321 320 320 320 320 320 320 320 321 321 321 321 322 322 323 323 324 324 325 324 324 323 323 322 322 322 323 323 324 325 326 326 328 329 330 330 329 329 328 328 329 327 326 325
295 296 297 297 298 298 299 299 301 301 298 297 297 297 297 297 297 298 298 299 299 300 300 300 300 300 302 304 307 310 314 318 320 321 321 320 320 320 320 321 321 321 321 320 320 320 320 320 320 320 320 320 320 321 321 321 322 323 323 323 323 322 322 321 321 321 321 322 322 322 323 323 324 325 325 327 327 328 328 328 328 328 329 328 326 325
294 295 295 296 297 297 298 299 300 299 296 295 295 295 296 296 296 297 297 298 298 299 299 299 299 299 300 301 304 307 310 313 317 320 322 322 321 321 321 321 321 321 321 320 320 320 320 320 320 320 320 320 320 320 321 321 321 322 322 322 321 321 321 321 321 321 321 321 321 322 322 322 323 323 324 325 326 326 327 327 327 327 328 328 327 326
293 293 294 295 296 297 298 298 297 296 294 294 294 294 294 294 295 295 296 297 297 298 298 298 298 298 298 300 303 305 306 306 308 310 315 318 321 322 322 321 321 321 321 320 320 320 320 320 320 319 320 320 320 320 320 321 321 321 321 321 321 321 321 320 321 321 321 321 321 321 321 321 322 322 322 323 324 325 325 325 326 326 326 327 327 326
292 292 293 294 295 296 296 295 294 293 293 293 293 293 293 293 293 294 295 295 296 297 297 297 297 297 298 300 303 304 302 301 301 301 303 305 309 312 316 319 320 321 320 320 320 320 320 320 320 319 319 320 320 320 320 320 320 320 321 321 321 321 320 320 320 320 320 320 320 320 320 320 320 321 321 321 322 323 323 323 324 324 324 325 325 326
291 292 292 293 294 294 294 293 292 292 292 292 292 292 292 292 292 293 293 294 295 295 296 296 297 297 297 300 302 302 300 299 299 298 299 300 301 303 306 309 313 316 319 320 320 320 320 320 320 319 319 320 320 320 320 320 320 320 320 320 321 320 320 320 320 320 320 320 320 320 320 320 320 320 320 320 321 321 321 322 322 322 322 323 323 324
291 291 291 292 292 292 292 291 291 291 291 291 291 291 291 291 291 292 292 293 294 294 295 295 296 296 296 299 300 300 299 298 297 297 298 298 300 301 303 305 307 310 314 317 319 320 320 320 319 319 320 320 320 320 320 320 320 320 320 320 320 320 320 320 320 320 320 320 320 319 319 319 319 319 319 319 320 320 320 321 321 321 321 321 322 322
290 291 291 291 291 291 291 291 291 291 291 291 291 291 291 291 291 291 291 292 293 293 294 294 295 296 296 297 298 298 297 296 296 296 296 297 299 300 302 303 305 307 310 313 317 319 320 320 320 319 320 320 320 320 320 320 320 320 320 320 320 320 320 320 320 320 320 319 320 319 319 319 319 319 319 319 319 319 320 320 321 321 321 321 321 321
290 290 290 290 290 290 290 290 290 290 291 291 291 291 290 290 290 291 291 291 292 292 293 294 294 295 296 296 297 297 296 295 295 295 296 297 298 300 301 303 304 306 308 310 313 316 318 320 320 320 319 319 320 320 320 320 319 320 320 320 320 320 320 320 320 320 320 319 320 319 319 319 319 319 319 319 319 319 320 320 320 320 320 320 320 321
289 289 290 290 290 290 290 290 290 290 291 291 291 290 290 290 290 290 290 291 291 291 292 292 293 294 295 295 295 295 294 294 294 294 295 297 298 300 301 303 304 306 307 309 311 313 316 318 319 320 320 320 320 319 319 319 319 320 320 320 320 320 320 320 320 320 320 320 320 320 320 319 319 319 319 319 319 319 320 320 320 320 320 320 320 320
289 289 289 290 290 290 290 290 290 290 290 290 290 290 290 290 290 290 290 290 291 291 291 291 292 292 293 294 294 294 293 292 293 294 295 297 298 300 301 303 304 306 307 307 308 310 312 315 317 320 321 321 320 320 320 320 320 320 320 320 320 321 321 321 321 321 321 321 320 320 320 320 320 320 320 319 319 319 320 320 320 320 320 320 320 320
289 289 289 289 290 290 290 290 290 290 290 290 290 290 290 290 290 290 290 290 290 290 290 291 291 292 292 293 293 292 292 292 293 294 295 297 299 300 301 303 304 304 304 304 305 305 306 307 309 312 316 318 320 321 321 321 321 321 321 321 321 321 321 321 321 321 321 321 321 321 320 320 320 320 319 319 319 319 320 320 320 320 320 320 320 320
289 289 289 290 290 290 290 289 289 289 289 289 289 289 289 289 290 290 290 290 290 290 290 290 291 291 291 292 291 291 291 292 293 294 296 298 299 300 301 303 303 303 302 302 303 303 304 305 306 306 308 311 315 319 321 321 321 321 321 321 321 321 321 321 321 321 321 321 321 321 320 320 320 320 319 319 319 319 320 320 320 320 320 320 320 321
289 289 289 289 289 289 288 288 288 288 288 288 289 289 289 289 289 289 289 290 290 290 290 290 291 291 291 291 291 291 292 292 293 294 296 298 298 299 300 301 301 301 301 301 302 303 304 305 306 307 308 309 312 315 318 320 321 321 321 321 321 321 320 320 320 320 320 320 320 320 320 320 320 320 320 319 319 320 320 320 320 320 321 321 321 321
289 289 288 288 287 287 287 287 287 288 288 288 288 289 289 289 289 289 289 290 290 290 290 291 291 291 291 291 292 292 293 293 293 294 295 296 297 297 298 298 299 299 300 301 302 303 304 305 306 307 308 309 311 313 316 318 319 320 320 321 320 320 320 320 320 320 320 320 320 320 320 320 320 320 320 320 320 320 320 320 320 320 321 321 321 321
288 287 287 286 286 286 287 287 287 288 288 288 288 288 288 288 289 289 289 290 290 290 291 291 291 291 291 292 292 293 293 293 294 294 294 295 296 296 297 297 298 298 300 301 302 302 302 303 305 306 307 308 309 311 314 317 318 319 320 320 320 320 320 320 320 320 320 320 320 320 320 320 319 320 320 320 320 320 320 320 320 321 321 321 321 321
286 286 286 286 286 286 287 287 287 288 288 288 288 288 288 288 288 288 288 289 289 290 290 290 291 291 291 292 292 293 293 293 293 294 294 295 295 296 296 296 296 298 299 301 301 301 301 302 304 305 306 307 308 310 312 315 317 318 319 320 320 320 320 320 320 320 320 320 320 319 319 319 319 319 320 320 320 320 320 320 320 320 320 320 320 321
286 286 286 286 286 286 287 287 287 287 287 287 287 288 288 287 287 287 287 288 288 289 289 290 290 290 291 291 292 292 293 293 293 294 294 294 295 295 295 296 296 297 298 299 299 299 300 301 303 305 306 307 308 309 311 313 315 316 318 319 319 319 320 319 319 319 319 319 319 319 319 319 319 320 320 320 320 320 320 320 320 320 320 320 320 320
285 285 285 286 286 286 286 286 286 286 286 286 287 287 287 287 286 286 287 287 287 288 288 289 290 290 290 291 291 292 292 292 293 294 294 294 295 295 296 296 295 295 296 296 297 298 299 301 302 304 306 307 307 309 310 311 313 314 316 317 318 318 319 319 319 318 318 318 319 319 319 319 320 320 320 320 320 320 320 320 320 320 320 320 320 320
284 284 285 285 285 285 285 285 285 285 286 286 286 287 286 286 286 286 286 286 286 287 287 288 289 289 289 290 290 290 291 292 293 293 292 293 294 295 295 294 293 293 294 295 296 298 299 301 302 304 305 306 307 307 309 310 311 312 313 314 315 316 317 317 317 318 318 318 318 318 319 319 319 319 320 320 320 320 319 319 319 319 319 319 319 319
284 284 284 284 285 285 285 285 285 285 285 285 286 286 285 285 285 285 286 286 286 286 287 287 287 288 288 289 289 289 290 292 292 292 290 290 291 292 293 292 292 292 293 294 295 297 299 300 301 303 304 304 304 304 305 307 309 310 311 312 312 313 314 314 315 315 316 317 317 317 318 318 318 318 318 318 318 318 318 317 317 317 317 317 317 317
283 283 284 284 284 284 284 284 284 284 284 285 285 285 285 285 285 285 285 285 285 285 286 286 287 287 287 288 288 288 289 291 291 290 289 289 290 290 290 291 291 291 292 293 294 296 298 299 300 302 302 302 302 302 302 303 305 307 308 308 309 309 310 311 312 313 313 314 315 315 316 316 316 317 317 316 316 316 316 316 315 315 315 315 315 316
283 283 283 284 284 284 284 284 284 284 284 284 284 284 284 284 284 284 284 285 285 285 285 286 286 286 287 287 287 288 288 290 289 289 288 289 289 289 290 290 290 291 291 292 294 295 297 298 299 300 300 300 300 300 301 302 303 304 305 305 306 306 307 308 309 310 311 312 312 313 313 314 314 315 315 315 315 315 315 315 315 314 314 314 314 314
283 283 283 283 283 283 283 283 283 283 283 283 283 283 284 284 284 284 284 284 284 285 285 285 285 286 286 286 287 287 287 287 288 288 288 288 288 289 289 290 290 290 291 291 292 294 295 297 298 298 298 298 299 300 301 302 303 304 304 305 305 305 305 306 307 308 309 310 311 312 312 312 312 313 313 313 314 314 314 314 314 314 314 313 313 313
282 282 283 283 283 283 283 283 283 283 283 283 283 283 283 283 283 283 284 284 284 284 285 285 285 285 286 286 286 286 286 286 287 287 287 288 288 289 289 289 290 290 291 291 292 293 294 295 296 296 297 298 299 300 301 302 303 304 304 304 305 305 305 306 307 308 308 309 310 310 311 311 311 311 312 312 312 312 312 312 312 313 313 312 312 312
281 282 282 282 282 282 282 282 282 282 282 282 282 282 282 282 282 283 283 283 284 284 284 285 285 285 285 286 286 286 286 286 286 286 286 287 288 288 289 289 289 290 291 291 292 293 293 294 295 296 296 297 298 299 300 302 303 304 304 305 305 305 306 307 308 308 308 308 309 309 310 310 311 311 311 311 310 310 311 311 311 311 312 312 312 312
281 281 281 281 281 281 281 281 281 281 281 281 281 281 282 282 282 282 282 282 283 283 284 284 284 285 285 285 285 285 285 285 285 285 286 286 287 288 288 289 289 290 290 291 292 292 293 294 295 295 296 297 298 299 300 302 303 304 304 305 305 305 306 307 308 309 308 308 308 309 309 309 310 310 310 310 310 310 310 310 310 310 311 311 311 312
280 280 280 280 280 281 280 280 280 280 280 280 280 281 281 281 281 281 282 282 282 282 283 283 283 284 284 285 285 285 285 285 285 285 285 286 286 287 288 288 289 289 290 291 291 292 293 293 294 295 296 297 298 299 300 301 302 303 304 304 305 305 305 306 307 308 309 308 308 308 308 309 309 310 310 311 311 311 310 310 310 310 310 311 311 311
280 280 280 280 280 280 280 280 280 280 280 280 280 280 280 280 281 281 281 281 282 282 282 282 282 283 283 283 284 284 284 284 284 285 285 286 286 287 287 288 289 289 290 290 291 292 292 293 294 295 296 297 298 299 300 301 301 302 303 304 304 305 305 306 307 308 309 308 308 308 308 308 309 309 309 310 311 311 311 311 310 310 310 310 311 311
279 279 279 279 279 279 279 279 279 279 279 279 279 280 280 280 280 281 281 281 281 281 281 281 281 282 282 282 283 283 284 284 284 285 285 286 286 286 287 288 288 289 289 290 291 291 292 293 294 295 296 297 298 298 299 300 301 302 302 304 305 305 305 306 306 307 308 308 307 307 307 307 308 309 309 310 310 310 311 311 311 311 311 311 311 311
279 279 279 279 279 279 279 279 279 279 279 279 279 279 279 280 280 280 280 280 280 281 281 281 281 281 282 282 282 283 283 284 284 285 285 286 286 286 286 287 288 288 289 290 290 291 292 293 294 295 296 297 297 298 298 299 300 301 302 303 304 305 306 306 306 307 308 307 307 306 306 306 306 307 308 309 310 310 310 310 310 311 311 311 310 311
279 279 279 279 278 278 278 278 278 278 279 279 279 279 279 279 280 280 280 280 280 280 280 280 281 281 281 282 282 282 283 283 284 284 285 285 285 285 286 286 287 287 288 289 290 291 291 292 293 294 295 296 297 298 298 299 299 300 301 303 304 305 305 306 306 307 307 307 307 307 306 306 305 306 307 308 309 310 310 310 310 310 310 310 310 310
279 279 278 278 278 278 278 278 278 278 278 279 279 279 279 279 279 279 280 280 280 280 280 280 280 281 281 281 282 282 283 283 284 284 284 284 285 285 285 286 286 287 287 288 288 289 290 291 292 294 295 296 297 298 298 299 300 300 301 302 303 304 305 306 306 306 307 307 307 307 306 306 305 305 306 307 308 309 310 310 310 310 310 310 310 310
279 278 278 278 278 278 278 278 278 278 278 278 279 279 279 279 279 279 279 280 280 280 280 280 280 280 281 281 281 282 282 283 283 283 284 284 284 285 285 286 286 287 287 287 288 289 289 291 292 293 294 295 296 297 298 298 299 300 301 302 303 304 305 305 306 306 307 307 307 307 307 306 306 305 306 306 307 309 309 310 310 311 311 310 310 311
278 278 278 278 278 278 278 278 278 278 278 278 278 279 279 279 279 279 279 279 280 280 280 280 280 280 281 281 281 282 282 282 283 283 283 284 284 285 285 286 287 287 287 287 288 288 289 290 291 292 293 294 295 296 297 297 298 299 300 301 303 304 304 305 305 306 306 307 307 307 307 306 306 306 306 306 307 308 309 310 310 311 311 311 311 311
279 278 278 278 278 278 278 278 278 278 278 278 278 279 279 279 279 279 279 279 280 280 280 280 280 280 280 281 281 281 281 282 282 282 283 283 284 284 285 286 286 287 287 288 288 288 289 290 291 292 292 293 294 295 296 296 297 298 299 300 301 302 303 303 304 305 306 306 307 307 307 307 307 307 307 307 307 308 309 309 310 310 311 311 311 311
279 278 278 278 278 278 278 278 278 278 278 279 279 279 279 279 279 279 279 279 279 279 279 280 280 280 280 281 281 281 281 281 282 282 283 283 284 284 285 285 286 286 287 287 287 288 289 289 290 291 292 292 293 294 295 296 297 297 298 299 300 301 302 302 303 303 304 305 305 306 307 307 307 307 307 307 308 308 309 309 310 310 311 311 311 311
279 279 279 278 278 278 279 279 279 279 279 279 279 279 279 279 279 279 279 279 279 279 279 279 280 280 280 280 281 281 281 281 282 282 282 283 283 283 284 284 285 285 285 286 286 287 287 288 289 290 291 292 293 294 295 296 297 297 298 298 299 300 302 302 302 303 303 303 304 305 305 306 307 307 307 307 308 308 308 309 309 310 310 311 311 311
279 279 279 279 279 279 279 279 279 279 279 279 279 279 279 279 279 279 279 279 279 279 279 279 280 280 280 280 280 281 281 281 282 282 282 282 283 283 283 283 283 284 284 284 285 285 286 287 288 288 290 291 292 294 295 296 297 297 297 297 298 299 300 301 302 303 303 303 303 304 304 305 306 307 307 307 307 307 308 308 308 309 310 310 311 311
279 279 279 279 279 279 279 279 279 279 279 279 279 279 279 279 279 279 279 279 279 279 279 279 280 280 280 280 280 281 281 281 282 282 282 282 282 282 282 283 283 283 283 283 284 285 285 286 287 288 289 290 292 294 295 296 297 297 297 297 297 298 298 299 300 301 302 303 303 303 304 305 305 306 307 307 307 307 307 307 308 308 309 310 310 310
279 279 279 279 279 279 279 279 279 279 279 279 279 279 279 279 279 279 279 279 279 279 279 280 280 280 280 280 280 281 281 281 282 282 282 282 282 282 282 282 282 282 283 283 284 284 285 286 287 288 289 290 291 293 295 296 296 297 297 297 297 298 298 298 299 300 301 302 303 303 303 304 305 306 306 306 307 306 307 307 307 308 308 309 309 310
279 279 279 279 279 279 279 279 279 279 279 280 280 280 279 279 279 279 279 279 279 279 279 280 280 280 280 280 281 281 281 281 281 282 282 282 282 282 282 282 282 282 283 283 284 284 285 286 286 287 288 290 291 293 294 295 296 296 296 297 297 298 298 298 298 299 299 300 301 302 303 304 304 305 306 306 306 306 306 306 307 307 308 308 308 309
279 279 279 279 279 279 279 279 279 280 280 280 280 280 280 279 279 279 279 279 279 279 280 280 280 280 280 280 281 281 281 281 281 281 281 282 282 282 282 282 282 283 283 283 284 284 285 285 286 286 287 288 289 290 292 293 294 294 295 296 296 297 297 298 298 299 299 300 300 301 302 303 303 304 305 306 306 306 306 306 306 306 307 307 308 308
Wind_Speed
19 22 24 26 26 25 24 23 23 24 25 26 26 28 30 34 37 39 40 41 41 41 41 41 42 43 44 46 48 49 49 49 49 49 49 49 49 49 49 50 50 50 50 51 52 52 53 54 55 55 55 55 54 52 52 51 50 50 51 52 53 52 51 50 49 48 47 46 46 46 46 47 47 47 47 47 46 46 45 44 44 43 42 42 41 40
20 22 22 23 24 24 24 25 25 25 25 26 27 27 28 29 32 37 39 41 42 41 40 39 39 39 41 42 45 47 48 48 47 47 47 48 48 48 48 48 48 49 49 50 51 52 53 54 55 55 55 54 52 51 52 51 51 51 51 52 53 53 52 51 50 49 48 47 46 46 47 47 48 48 48 48 48 47 47 46 45 45 44 43 42 42
20 20 21 22 23 23 23 25 27 26 26 26 27 27 27 27 28 31 35 39 41 43 43 41 40 39 39 40 42 44 45 46 47 47 47 47 47 47 47 46 46 47 48 49 50 52 53 54 54 55 54 52 51 51 52 53 52 52 52 52 53 53 53 52 51 50 49 48 47 47 47 48 49 49 49 49 49 49 48 47 47 46 45 45 44 43
18 19 20 22 23 23 23 24 25 26 26 27 28 27 26 26 26 26 29 32 36 40 42 43 43 42 41 40 41 42 44 45 46 47 47 47 48 47 47 46 45 46 46 48 50 52 53 53 54 53 53 52 52 53 54 54 53 53 53 53 53 53 53 52 51 50 49 48 48 47 47 48 49 50 50 50 50 49 49 48 47 47 46 46 45 44
17 18 19 21 21 22 23 24 24 24 25 27 28 27 26 25 25 26 25 27 30 34 37 39 41 41 42 42 42 42 43 44 44 45 47 48 48 48 48 47 46 45 46 48 50 53 54 54 54 54 53 53 53 54 55 54 54 54 54 54 54 53 52 52 51 50 49 48 48 47 47 48 49 50 50 50 49 48 46 46 46 47 48 47 46 45
16 17 18 18 18 19 21 22 22 23 24 25 26 26 25 25 25 25 25 24 24 26 30 33 36 37 39 40 41 42 42 42 42 43 45 46 47 48 48 47 46 46 47 49 52 54 55 55 55 55 54 54 55 55 55 55 54 55 55 55 54 53 52 51 50 49 48 47 47 47 47 47 48 49 50 49 47 44 42 43 45 47 48 47 46 45
17 17 18 18 18 18 19 20 20 21 21 22 23 24 24 25 25 25 25 24 22 19 19 21 24 28 31 35 38 40 40 40 40 41 42 44 45 45 45 46 46 46 48 51 53 55 56 56 56 55 55 55 55 55 55 54 54 55 55 55 54 53 52 50 49 47 46 45 45 45 46 46 47 48 48 47 44 42 41 42 44 46 47 46 44 44
18 18 18 17 18 18 18 18 18 18 19 20 21 21 22 24 25 26 27 26 25 23 22 20 19 18 20 23 28 33 36 38 39 39 40 41 42 42 43 44 45 46 48 50 53 54 55 55 56 56 55 55 55 54 54 54 54 55 55 55 54 53 51 49 47 46 44 44 44 44 44 45 45 46 47 46 45 43 42 42 44 45 46 44 42 41
17 18 17 17 17 17 18 18 17 17 18 19 19 19 19 22 24 26 27 26 25 25 25 25 25 24 23 22 22 23 27 32 36 38 38 38 38 40 41 42 44 45 47 49 51 52 54 54 55 55 55 54 54 53 53 53 54 55 55 55 53 51 49 47 45 44 43 42 42 42 43 43 44 44 45 45 45 44 43 43 43 44 46 44 41 40
16 17 17 17 17 17 16 17 16 17 19 20 19 17 18 20 22 24 25 24 24 25 25 25 25 26 28 28 27 25 24 25 29 35 38 38 38 38 40 41 43 44 46 47 49 51 52 53 53 54 53 53 53 52 52 52 53 54 55 54 51 48 46 44 43 42 41 41 41 41 41 41 42 42 43 44 44 44 44 43 43 44 45 45 42 40
16 16 16 17 17 16 15 15 15 17 21 22 20 18 17 18 19 20 21 23 24 25 25 24 24 25 27 29 29 28 26 24 22 25 30 34 37 39 39 40 41 42 44 45 47 48 50 51 51 52 52 51 51 51 51 51 52 53 53 51 48 44 42 41 40 39 39 39 39 39 39 39 39 40 41 42 42 42 42 42 42 42 43 44 43 41
15 15 15 16 16 15 15 15 16 18 21 21 20 18 18 19 19 19 19 20 22 24 24 25 25 25 26 26 25 25 25 25 24 22 20 20 23 28 32 35 38 40 41 43 44 45 46 48 49 50 50 49 49 49 49 50 51 51 50 47 44 41 40 39 38 37 37 37 36 36 36 36 37 37 38 39 39 40 40 40 39 39 40 41 42 42
14 14 14 15 14 14 14 15 16 18 18 18 17 16 17 19 20 19 18 18 19 21 22 24 25 26 26 23 20 21 24 26 27 28 28 25 21 18 17 21 25 30 35 37 39 41 42 44 45 47 47 48 48 48 48 49 49 49 47 44 42 40 39 38 37 37 36 36 35 35 35 35 35 36 36 37 37 37 38 38 38 38 38 38 39 40
13 14 14 13 13 13 13 15 16 16 16 15 16 17 18 20 20 20 19 19 19 20 21 22 23 24 24 19 17 19 24 28 30 31 31 31 30 28 23 20 18 19 24 29 33 37 39 40 41 43 45 46 47 47 47 48 48 47 46 44 42 41 41 40 39 38 38 37 37 37 37 37 37 37 37 37 38 38 38 38 38 38 38 38 38 38
13 13 12 12 12 12 13 14 15 15 15 15 16 18 19 20 19 19 18 19 20 21 21 21 22 22 20 16 15 19 24 27 29 29 30 33 34 33 29 25 22 20 18 21 26 32 35 37 38 40 42 44 46 47 47 47 47 47 45 44 43 42 43 43 43 43 42 41 41 41 40 40 40 40 40 40 41 41 41 42 41 40 39 38 38 38
12 12 11 12 12 13 13 14 14 15 15 17 17 17 18 18 18 18 18 18 19 20 19 19 20 19 19 16 15 17 23 26 27 27 28 30 33 33 29 27 25 23 21 20 21 25 29 33 36 38 40 43 44 46 47 47 47 46 45 44 43 43 44 45 46 47 47 47 47 47 46 46 45 45 45 45 45 45 45 45 44 43 41 40 39 39
12 11 11 12 12 14 15 15 15 16 16 17 17 17 17 17 18 18 17 17 18 17 16 15 11 9 13 18 18 18 23 27 27 27 27 27 30 32 29 26 25 24 24 22 21 21 23 27 32 35 38 41 43 44 46 47 47 46 46 45 45 45 46 47 49 50 51 52 53 53 53 53 53 52 51 51 51 51 49 49 47 44 43 42 41 41
12 12 12 12 13 14 15 16 16 16 17 17 18 19 18 18 18 17 17 16 16 15 15 15 11 7 7 13 18 21 26 28 27 26 25 25 27 30 30 27 25 24 23 22 21 20 20 23 27 32 36 39 41 43 44 45 46 47 47 47 48 49 50 52 53 54 55 56 57 58 58 58 59 58 58 58 58 57 54 52 48 46 44 43 43 43
13 13 13 13 14 15 15 16 16 17 18 19 20 21 20 19 18 17 16 15 15 15 14 14 14 13 12 16 20 24 28 29 27 24 21 22 24 28 29 27 25 22 20 20 20 21 21 21 23 27 33 38 42 44 45 46 47 48 50 51 53 55 56 57 59 60 61 61 62 62 62 62 61 61 61 60 60 60 58 54 50 47 45 45 45 46
14 14 14 14 15 15 15 16 17 18 19 21 22 22 20 20 19 18 17 16 16 16 16 15 15 16 16 18 22 26 30 29 25 21 19 20 22 24 25 25 23 22 21 22 23 23 25 25 24 24 25 30 37 43 47 49 50 51 53 55 57 59 61 62 63 63 64 64 64 63 62 62 61 60 60 59 59 58 57 55 52 49 48 47 48 49
15 15 15 15 16 15 15 18 19 20 21 23 23 21 19 19 18 18 18 18 18 17 17 16 17 18 19 21 23 27 29 26 21 17 17 18 20 21 22 23 25 26 26 26 28 29 30 30 29 27 24 23 27 34 41 47 50 52 54 56 59 60 61 62 63 63 63 63 62 62 61 60 59 58 57 57 56 56 55 54 53 52 51 51 51 51
15 15 16 17 17 18 18 20 21 22 22 22 21 19 18 18 18 18 19 19 19 18 17 17 18 20 21 23 25 27 26 22 18 16 15 15 18 21 22 24 26 27 27 28 30 31 31 31 30 29 26 23 22 25 32 39 45 49 51 54 56 57 58 58 59 59 59 59 59 59 58 57 56 55 55 54 54 54 53 53 53 54 54 54 54 53
16 17 19 20 21 21 21 22 22 22 22 21 20 19 20 21 21 20 21 20 20 19 20 20 21 22 23 24 25 24 22 19 16 15 13 10 14 20 22 24 25 25 26 27 28 30 31 32 32 30 28 25 23 22 25 31 37 43 47 49 51 53 54 54 55 55 55 56 56 56 55 54 54 53 53 53 53 53 53 53 54 54 55 55 55 54
19 20 22 22 23 23 22 22 21 21 21 21 21 21 22 22 22 22 22 21 21 21 21 22 21 21 20 20 20 19 18 16 16 15 13 11 14 18 21 22 23 23 24 25 27 29 31 32 32 31 30 28 25 23 22 25 31 36 41 44 47 48 50 50 51 52 52 52 52 52 52 52 52 52 52 52 53 53 53 53 54 54 55 54 54 53
19 20 21 22 22 21 20 20 20 20 20 21 21 21 21 21 20 19 19 19 19 19 19 19 17 16 16 15 15 14 15 16 16 15 13 12 14 17 19 20 20 21 22 25 27 29 30 31 31 31 31 30 26 23 20 21 25 30 34 38 41 44 45 47 48 48 49 50 50 50 50 50 51 52 52 53 53 54 54 54 54 54 54 54 52 52
19 19 20 20 19 19 19 19 19 19 19 19 20 20 21 21 20 18 17 16 17 17 17 15 14 13 15 14 13 13 14 16 17 16 15 12 13 15 17 18 18 19 22 25 28 29 29 29 30 31 32 29 25 20 18 18 20 24 28 33 36 39 42 43 45 46 48 48 49 50 50 51 52 53 54 54 54 55 55 55 55 54 54 52 51 51
18 18 18 18 18 18 18 18 18 18 18 18 18 19 20 20 19 16 15 15 16 16 15 12 9 10 13 13 13 14 16 17 16 16 15 14 13 13 13 16 18 20 22 24 27 29 28 28 28 29 28 26 21 16 13 13 14 17 21 25 29 33 37 40 43 45 47 48 49 50 51 52 53 54 55 55 55 55 55 55 55 54 53 52 50 50
17 17 17 17 17 17 17 18 18 18 18 18 18 18 18 18 16 14 13 15 16 16 14 11 8 7 8 11 13 16 17 16 15 14 16 15 12 11 13 18 21 21 21 22 25 27 27 25 24 24 23 22 21 19 15 12 11 11 13 16 19 24 28 32 36 40 43 46 48 49 50 52 52 53 54 54 54 54 54 53 53 53 52 51 50 49
16 16 16 16 16 17 17 18 18 19 18 18 18 17 17 16 15 14 15 16 16 15 13 13 12 10 10 13 15 17 16 13 12 15 20 18 14 14 17 20 21 20 20 20 22 22 22 20 20 20 20 21 23 24 24 21 17 13 11 10 10 12 15 19 24 28 33 36 40 42 44 46 47 48 49 49 49 49 49 49 49 49 49 48 47 46
17 16 16 16 17 17 18 18 19 19 19 18 18 17 17 16 16 16 17 17 16 15 13 13 13 13 13 14 13 11 10 10 12 19 23 20 15 15 19 20 19 19 19 16 14 12 14 17 18 18 19 22 25 26 27 25 22 19 17 15 13 12 11 10 11 15 19 23 26 30 32 35 37 39 40 41 42 42 43 43 44 44 43 43 43 41
18 17 17 17 17 18 18 18 18 19 19 19 19 18 18 17 17 17 17 17 17 15 14 14 14 14 13 10 6 4 5 10 15 20 23 19 15 15 18 18 18 19 18 13 6 4 8 12 16 20 22 25 27 27 27 26 24 22 20 19 18 17 15 13 11 9 10 13 17 20 22 25 27 29 31 32 34 35 36 37 38 38 38 37 37 37
17 17 17 17 18 18 18 18 18 19 19 19 19 19 19 18 18 18 18 18 18 17 16 15 15 15 14 11 8 6 8 14 17 20 21 18 16 16 17 16 16 18 18 14 9 6 5 5 13 22 26 28 28 27 26 25 23 22 21 19 19 18 17 15 13 11 9 8 10 14 17 20 22 24 25 26 28 29 31 32 33 34 34 34 34 34
17 16 17 17 17 18 18 18 18 19 19 19 19 19 19 19 19 19 20 20 20 19 18 16 15 15 15 15 14 13 15 17 18 19 20 18 17 16 16 16 17 18 18 17 14 11 8 7 13 21 25 25 25 25 25 24 23 21 20 19 18 17 16 14 13 11 10 9 8 9 12 16 19 22 24 25 26 27 28 29 31 32 33 34 33 33
17 16 17 17 17 17 17 17 18 18 18 18 17 18 19 20 21 21 21 21 21 21 19 18 17 16 16 16 16 17 18 18 18 20 21 20 18 16 17 17 17 17 17 16 15 14 12 13 15 16 19 22 23 23 22 21 21 20 19 18 16 16 15 13 12 11 10 10 10 9 9 10 14 18 22 24 26 27 28 29 30 32 33 35 34 33
17 17 17 17 17 17 17 18 18 18 17 17 17 18 18 20 21 22 23 23 22 21 20 20 19 19 18 17 16 17 18 20 21 22 22 21 20 18 17 17 16 17 16 16 15 13 12 14 15 15 15 18 20 20 19 18 19 19 19 18 17 16 15 14 13 12 11 10 10 10 10 10 10 13 17 21 24 27 29 30 31 32 34 35 35 34
16 16 17 17 17 17 17 18 18 18 18 18 18 18 19 20 21 22 23 23 23 22 21 21 20 20 20 20 20 20 22 24 25 25 24 23 22 20 17 16 17 18 17 16 15 13 12 13 15 16 15 14 14 15 17 17 18 19 19 19 19 18 17 16 15 13 12 11 10 10 11 11 11 12 13 16 19 24 27 30 31 32 34 35 36 35
16 16 17 17 17 17 17 18 18 18 18 19 19 19 20 21 22 22 22 22 22 22 22 22 21 21 21 21 22 23 25 26 26 26 25 24 24 22 19 17 18 19 18 16 15 15 14 12 13 14 13 11 10 12 15 18 19 19 20 21 21 20 19 18 16 15 14 12 11 10 11 11 11 12 13 14 16 19 24 27 30 32 33 35 36 36
16 16 17 17 17 18 18 18 18 19 19 20 20 20 21 22 22 22 21 21 21 21 22 22 23 23 22 22 22 23 24 24 24 24 24 24 23 22 20 19 20 20 19 18 17 17 15 10 8 7 7 10 13 15 16 18 19 19 20 21 21 21 20 18 17 16 15 13 11 11 11 11 12 12 13 14 16 18 21 25 28 31 32 33 35 36
17 17 17 17 18 18 18 18 19 19 20 20 20 21 22 22 22 21 20 20 20 20 21 22 23 23 23 23 22 22 22 22 22 22 22 22 22 22 21 20 20 20 20 20 19 18 16 12 9 6 5 8 12 15 17 17 17 19 21 22 22 21 19 18 17 17 15 13 12 11 11 11 12 12 13 15 16 18 21 23 26 29 31 32 34 35
17 17 17 18 18 18 18 19 19 20 20 21 21 21 21 21 20 20 20 20 20 20 21 21 21 21 21 21 21 21 20 20 20 20 20 21 21 21 21 21 20 20 20 20 19 18 17 16 15 14 13 12 13 14 15 15 16 18 20 19 18 17 17 17 17 17 16 14 12 11 10 11 12 13 14 15 17 19 20 22 24 26 29 30 31 32
17 17 18 18 19 19 19 19 20 20 20 20 20 21 21 20 20 20 21 20 20 20 21 21 21 21 21 21 20 20 20 19 20 20 20 21 21 21 21 21 20 20 20 20 19 18 17 16 16 16 16 16 16 16 15 15 16 18 19 17 17 18 19 19 19 18 16 15 13 10 10 11 12 13 14 16 17 19 20 21 22 24 26 29 30 30
18 18 19 19 19 19 19 20 20 20 20 19 19 19 19 19 20 20 21 21 21 21 21 21 21 22 22 21 20 20 19 20 20 21 21 21 21 21 21 21 21 21 20 20 20 19 18 17 17 16 16 16 15 15 15 16 17 18 18 18 19 20 20 19 17 16 15 14 13 11 11 11 12 13 14 15 17 19 20 21 22 23 24 26 28 30
19 19 19 20 20 20 20 20 20 20 19 19 19 19 19 19 20 20 20 20 20 20 21 21 21 21 21 21 21 21 21 21 21 22 22 22 22 22 22 23 22 22 21 20 19 19 19 19 18 17 17 16 16 15 14 15 16 17 18 19 18 16 13 13 13 13 13 13 12 11 11 11 12 12 13 15 17 18 20 21 21 22 23 25 27 29
19 19 20 20 20 20 20 20 20 20 20 19 19 19 19 20 20 20 20 19 20 20 20 20 20 20 19 19 20 21 22 22 23 23 23 23 23 23 23 24 24 23 21 20 18 18 19 19 18 18 18 18 17 16 15 14 15 16 17 19 19 17 14 14 15 16 15 14 13 12 12 12 12 13 13 14 16 18 20 20 21 22 23 24 26 28
19 20 20 20 20 20 20 20 20 20 20 20 19 19 20 20 20 19 18 19 20 20 20 20 19 18 17 18 20 21 22 23 23 24 24 24 24 24 23 23 23 23 22 20 19 19 18 18 18 19 20 20 18 16 15 14 14 15 17 18 19 19 19 18 19 19 19 18 16 15 15 14 14 14 14 15 16 18 19 19 20 21 22 23 25 27
20 20 21 21 21 20 20 20 21 21 20 20 20 20 20 20 20 19 19 19 19 19 19 19 18 16 16 17 19 20 21 22 22 23 24 25 26 26 25 23 23 22 21 21 20 20 19 19 20 21 20 19 18 17 15 14 13 14 15 17 19 19 19 18 18 17 17 18 18 18 17 16 16 15 15 15 16 17 18 18 19 20 22 23 24 26
20 21 21 21 21 21 21 21 21 21 21 21 21 21 21 21 21 20 19 20 19 19 19 18 17 16 16 17 18 18 18 20 21 22 23 24 25 26 26 25 25 23 22 22 21 20 19 19 20 20 19 18 16 15 15 15 14 13 13 15 17 18 18 18 17 16 16 16 17 17 17 17 16 16 15 15 16 17 17 18 18 19 21 23 24 26
20 20 20 21 21 21 21 22 21 21 21 21 21 21 21 21 20 20 20 20 20 19 19 19 18 17 17 18 18 18 18 18 19 20 21 22 23 24 25 26 27 27 26 25 23 21 20 18 17 17 17 17 15 14 15 15 15 15 14 14 15 15 16 17 18 17 16 16 16 17 17 17 17 16 16 15 15 15 16 17 18 18 20 22 24 25
20 20 20 20 20 21 21 21 21 21 21 22 22 22 22 22 21 21 20 20 20 19 18 18 18 18 18 18 18 19 18 18 19 19 20 20 21 22 23 25 26 27 27 26 24 23 21 19 16 14 13 14 15 15 15 16 17 17 16 15 15 14 14 16 17 18 18 17 17 17 17 18 18 18 17 15 14 14 15 16 17 18 19 21 23 25
20 20 20 20 20 20 21 21 21 21 21 21 22 22 22 23 22 21 20 20 19 19 18 18 18 18 18 18 19 19 19 19 19 19 20 20 20 21 22 23 24 25 25 24 24 23 21 19 17 15 11 10 11 13 15 16 18 18 18 16 15 14 14 15 16 17 17 17 17 17 18 18 19 20 19 16 15 14 15 16 17 18 19 20 21 23
21 21 21 20 20 20 21 21 21 20 21 21 21 22 22 22 22 22 21 20 19 19 19 18 18 18 18 18 19 20 20 19 19 19 20 20 20 20 21 21 22 21 21 20 19 18 17 15 14 15 15 14 12 12 14 17 18 18 17 16 15 15 15 15 16 17 17 18 18 18 18 18 19 19 19 17 15 13 13 14 16 18 20 21 21 22
Wind_Direction
327 326 325 327 328 329 327 330 336 339 335 326 314 298 284 273 266 262 260 258 257 255 253 252 251 251 251 251 251 251 251 251 252 252 253 253 252 252 252 252 252 251 249 248 246 245 245 244 244 243 242 241 240 239 239 239 238 238 237 237 236 236 236 235 234 233 232 232 231 231 232 233 235 236 236 235 234 234 233 233 233 232 232 230 229 228
333 332 332 334 335 334 329 328 331 335 336 334 331 323 311 293 278 269 264 262 260 259 257 255 253 252 251 251 251 251 251 250 250 251 252 252 252 252 252 252 252 252 251 249 248 246 245 244 243 242 241 241 241 241 241 241 240 239 238 237 237 236 235 235 234 233 232 232 232 232 233 234 235 236 237 236 236 235 235 234 234 234 233 232 231 229
337 336 337 339 341 340 335 333 334 335 335 333 332 331 327 314 296 280 270 265 263 262 260 258 255 253 252 252 252 251 251 250 249 249 249 250 251 251 252 252 253 254 254 252 251 249 247 245 243 242 241 242 243 244 243 242 241 241 240 238 237 236 235 235 234 233 233 233 233 234 234 235 235 236 237 237 237 236 235 235 235 234 234 233 232 231
337 336 337 340 341 340 337 336 337 337 336 335 335 336 336 329 316 300 283 272 266 264 263 261 258 256 254 253 252 252 251 251 250 249 248 248 248 249 250 251 253 255 256 256 255 253 250 247 244 243 243 244 246 247 245 243 242 241 240 239 238 237 236 235 234 234 233 233 233 234 235 235 236 237 237 237 237 236 235 234 235 235 235 234 232 231
334 335 336 338 336 334 335 337 337 337 338 338 339 340 341 338 332 322 307 289 275 267 264 263 261 259 257 255 254 253 252 252 251 250 249 249 248 247 247 248 250 253 255 256 256 255 252 249 245 243 244 245 247 247 245 243 241 240 240 239 238 237 236 235 235 234 234 234 234 234 235 236 237 237 236 235 234 233 232 232 234 236 237 235 232 230
329 330 332 332 330 328 330 334 336 338 339 340 341 343 344 344 342 339 331 316 296 279 269 265 263 262 260 259 257 256 254 253 252 252 251 250 249 248 247 247 248 251 253 254 254 254 252 249 246 244 244 244 245 245 244 242 241 240 239 238 237 236 236 235 235 235 235 235 235 235 236 236 237 237 236 234 231 230 228 229 232 235 236 234 231 229
323 325 328 328 326 326 327 330 335 339 341 343 344 344 345 345 346 346 345 342 333 318 300 285 277 271 267 264 261 259 257 255 254 253 252 251 251 250 249 249 249 251 253 253 253 252 250 249 246 245 244 244 244 243 242 241 240 239 238 238 237 236 235 235 235 235 236 236 236 236 237 237 237 238 237 235 232 230 229 228 230 233 235 232 229 228
322 324 327 327 327 327 328 330 334 341 348 350 349 347 346 345 344 344 346 349 352 352 347 341 330 316 300 287 275 267 260 256 254 253 252 251 250 250 250 251 252 253 254 254 253 251 250 248 247 246 245 244 243 242 241 240 240 239 238 237 236 235 235 235 235 236 236 237 237 237 237 238 238 239 239 238 236 235 233 231 231 233 234 233 230 228
323 324 326 327 327 327 327 328 333 343 354 357 355 351 349 347 344 342 341 343 347 351 351 350 348 343 338 332 318 298 278 264 256 252 250 250 249 249 249 251 252 254 255 254 253 252 250 249 248 246 245 244 243 242 241 240 240 239 238 237 236 235 235 235 235 235 235 236 236 237 237 238 238 239 239 239 239 239 237 236 235 235 235 234 232 230
324 324 325 325 326 325 325 324 331 343 353 356 355 354 353 351 346 342 339 338 340 342 344 344 341 339 338 340 341 335 318 293 270 257 251 249 249 249 250 252 253 254 255 255 254 252 251 249 248 246 245 244 243 242 241 240 239 238 237 236 235 234 234 234 234 234 234 234 235 235 236 237 238 238 239 239 239 239 239 239 239 239 239 237 235 233
326 325 325 324 324 325 325 326 334 345 350 351 351 351 354 354 351 344 337 334 334 337 338 338 336 334 332 333 338 343 341 330 307 279 261 252 250 250 251 253 254 255 255 255 254 252 251 249 247 246 244 243 242 242 241 240 239 237 236 234 233 232 232 232 232 231 231 231 232 233 234 236 237 238 238 238 238 239 239 239 240 242 242 241 239 237
326 325 325 324 324 326 330 336 342 347 350 351 349 348 348 350 350 344 335 330 330 332 332 332 331 329 329 328 333 341 347 348 344 333 311 287 268 257 254 253 252 253 254 254 254 252 251 249 247 245 244 243 242 241 240 239 237 235 233 231 230 229 229 229 229 229 230 230 231 232 234 236 237 239 239 239 239 239 239 239 241 242 244 245 244 242
324 324 324 324 325 330 339 344 345 346 349 351 349 345 341 342 342 340 332 326 325 327 327 326 325 325 326 328 334 341 346 346 345 343 341 336 328 314 291 274 261 254 251 250 251 250 250 248 246 244 243 242 241 241 239 237 235 233 231 229 228 227 228 229 230 231 232 233 235 236 237 239 240 242 243 243 243 243 243 243 243 243 244 245 246 246
326 326 326 326 327 334 343 345 343 341 342 344 343 339 335 335 337 336 331 325 323 324 324 322 319 320 323 327 333 339 342 342 341 338 336 333 333 334 332 323 306 283 262 251 247 247 248 247 245 243 242 241 240 239 237 236 234 232 231 230 230 230 231 233 234 236 238 239 240 241 242 243 244 245 246 247 248 248 248 247 247 246 245 245 246 247
326 327 327 327 329 333 339 340 337 333 333 334 335 334 333 334 335 335 332 326 324 325 325 323 320 319 319 322 330 337 340 343 341 337 332 327 327 329 331 329 325 316 297 271 255 248 246 245 243 242 241 239 238 237 235 234 233 232 232 232 233 234 236 237 239 240 242 243 245 246 246 247 247 248 249 250 251 251 251 251 250 248 246 246 246 247
325 326 325 325 325 327 331 332 330 327 326 328 330 332 332 332 332 332 330 325 324 326 327 326 324 321 318 319 327 338 343 344 340 334 328 323 322 324 327 325 322 319 314 299 278 260 250 244 242 241 240 239 237 236 234 233 233 233 234 235 237 238 239 240 241 242 243 245 246 247 248 249 249 249 250 251 252 252 252 252 250 248 245 245 246 247
324 324 322 321 321 322 324 326 325 323 324 326 327 329 329 327 327 326 324 323 324 325 325 326 325 320 317 317 321 332 342 342 337 330 324 317 316 319 322 320 316 313 312 309 300 285 266 252 244 241 239 239 238 237 235 234 234 235 236 238 240 242 243 243 244 245 245 246 246 247 247 248 249 249 249 250 252 252 252 252 249 245 243 243 244 247
323 322 320 317 317 319 322 324 324 325 326 327 327 326 324 322 321 320 318 319 320 320 320 320 317 311 312 311 315 323 333 336 332 325 318 312 311 315 318 316 312 309 310 311 311 307 293 273 258 248 243 241 240 238 237 236 237 238 240 242 244 246 247 247 247 247 247 247 247 247 247 248 248 248 248 248 249 249 249 249 246 243 241 241 243 245
317 316 314 312 313 316 320 324 327 329 330 328 327 325 322 320 319 317 314 314 313 313 312 311 308 305 303 302 308 317 324 327 325 318 310 306 306 310 314 314 311 310 312 315 317 318 314 303 285 268 256 249 246 244 242 242 242 243 245 247 248 249 249 249 249 248 248 248 247 247 247 247 247 247 246 245 245 245 245 245 243 241 240 242 244 246
308 306 306 308 312 317 321 325 329 330 328 326 324 321 318 318 317 315 313 312 309 307 305 303 300 300 301 301 305 311 317 320 318 310 303 300 301 305 310 312 314 317 318 316 315 317 320 318 312 299 280 264 254 250 249 248 248 249 249 250 250 249 249 248 248 247 247 247 247 246 246 246 245 245 244 243 242 242 242 241 240 240 242 244 246 247
302 301 305 313 319 322 323 323 324 325 324 323 321 318 316 316 316 314 313 311 308 305 302 298 296 297 299 300 302 306 313 315 311 304 302 300 300 302 307 310 314 316 315 310 309 312 317 319 318 314 306 290 270 256 251 250 250 250 250 250 249 248 247 246 246 245 245 245 245 245 244 244 244 243 243 242 241 240 239 239 240 241 244 246 247 248
308 311 319 325 327 325 322 320 320 320 321 321 319 318 317 317 315 312 311 309 306 302 299 295 294 295 295 295 297 302 310 309 304 300 302 302 300 302 306 309 310 310 308 305 307 312 318 320 319 317 313 304 287 266 252 247 247 247 248 248 248 247 246 245 244 244 244 244 244 244 244 243 242 242 241 241 239 239 238 239 241 243 246 247 248 248
329 328 328 327 324 321 318 317 318 319 321 322 321 320 319 317 314 310 309 306 303 300 298 296 296 296 296 295 297 301 305 304 301 301 301 298 298 300 305 307 307 305 301 302 309 316 320 320 319 318 317 311 300 280 259 247 243 243 245 246 246 246 246 246 245 245 244 244 244 244 243 242 241 240 239 238 238 237 238 240 242 245 247 248 248 247
331 325 321 318 317 316 316 316 318 320 322 324 324 324 323 321 319 316 313 310 307 304 303 303 302 301 299 298 298 299 302 304 303 300 295 290 290 295 300 304 304 301 299 303 311 317 320 319 320 320 319 315 307 293 271 253 244 241 242 243 244 246 246 246 246 245 244 244 243 242 240 239 238 237 236 236 236 237 239 241 244 246 247 247 247 245
322 317 314 313 314 315 316 317 318 321 324 325 326 326 327 327 326 325 324 322 318 315 312 309 306 305 305 303 302 301 304 310 308 299 289 286 287 291 296 300 301 300 302 308 314 318 319 319 320 322 322 317 309 297 281 263 251 244 242 241 242 243 244 245 245 244 243 242 240 239 238 237 236 235 235 235 236 238 240 242 244 246 246 246 245 243
318 315 314 314 314 316 317 318 320 323 325 326 327 329 331 333 334 334 332 331 329 326 321 316 311 310 312 311 309 308 311 314 309 299 288 287 289 292 297 305 310 312 313 316 318 320 320 319 320 322 323 319 309 296 284 271 260 252 246 243 242 242 242 242 242 241 240 239 238 237 236 236 235 235 235 236 237 239 241 243 244 245 245 244 243 240
318 317 316 317 318 320 321 323 324 326 327 328 330 332 335 338 339 337 334 334 334 331 326 321 316 315 317 316 315 316 316 312 307 304 302 299 295 295 304 321 329 329 325 321 321 321 320 317 317 321 325 326 321 310 294 281 270 262 255 250 246 243 241 240 239 238 237 236 235 235 235 235 236 236 237 238 239 240 242 243 244 244 243 241 238 234
322 320 320 321 322 323 324 326 327 329 330 330 332 335 338 340 339 334 331 332 332 329 325 322 319 317 320 319 319 318 315 308 309 321 332 326 315 309 321 332 336 335 331 325 322 321 319 314 314 318 325 334 341 343 338 325 305 285 272 262 255 249 245 241 239 237 236 235 235 235 235 235 236 237 237 238 239 240 240 241 240 240 238 234 230 227
327 325 324 324 325 326 327 329 330 331 331 331 333 335 337 338 335 329 326 327 327 325 321 320 318 317 317 317 317 315 310 305 319 338 344 340 328 320 326 330 332 334 334 329 324 320 316 311 310 313 319 328 337 344 348 348 344 335 323 309 292 274 261 251 244 240 238 237 236 236 236 236 237 237 237 237 237 237 236 235 234 232 229 226 223 221
331 330 329 328 329 330 331 332 333 334 333 333 334 335 335 335 332 327 324 325 323 321 318 317 316 316 317 317 316 312 306 309 327 337 339 338 329 320 324 324 326 330 335 332 327 319 313 309 308 309 314 319 325 330 335 339 341 342 343 342 338 331 318 296 271 253 244 239 237 236 236 236 236 236 235 234 233 232 231 229 227 225 222 221 219 219
332 331 330 331 332 333 334 334 334 335 335 335 335 336 336 334 331 328 326 324 321 317 314 313 313 314 316 317 315 308 304 309 320 329 333 332 323 315 318 318 320 323 328 330 327 310 312 311 311 312 316 320 323 326 328 328 327 327 329 330 330 330 330 330 322 301 270 250 240 235 233 232 232 232 232 231 230 229 228 226 225 223 222 221 220 220
332 331 331 331 333 335 336 336 336 336 335 335 335 336 336 334 333 330 328 325 322 317 312 309 309 310 310 308 303 297 297 304 313 323 329 325 316 311 313 313 314 316 319 318 311 299 303 308 312 314 317 320 323 326 327 324 321 318 318 318 317 317 318 322 327 327 315 287 258 242 235 231 230 230 230 230 229 229 229 228 227 225 224 222 221 220
334 333 333 333 334 336 337 338 338 337 336 335 335 335 335 335 334 333 331 329 326 321 315 309 307 306 306 304 300 296 296 300 309 318 322 319 313 309 310 310 311 312 314 312 305 297 292 294 305 311 314 317 320 322 323 322 319 316 315 314 313 312 311 312 315 320 323 317 299 270 249 238 234 232 231 232 232 232 231 230 228 226 224 222 220 219
336 336 336 336 337 338 339 339 339 338 337 336 335 335 334 334 334 334 333 332 330 327 321 314 309 306 305 305 302 300 298 301 308 314 316 314 309 306 306 307 308 309 311 310 307 303 298 296 301 307 310 313 315 317 319 319 317 315 312 310 309 308 306 303 302 303 309 311 308 299 281 260 245 238 234 233 233 232 232 231 229 227 225 222 219 217
339 339 339 339 339 339 339 339 338 337 336 335 334 334 333 332 333 333 333 332 331 328 324 319 314 309 305 303 302 302 302 304 308 312 313 309 305 303 303 303 304 306 307 305 306 306 303 301 301 304 307 309 310 312 315 316 316 313 309 306 304 302 300 295 291 290 293 296 296 294 291 283 268 254 243 238 235 233 232 231 229 227 225 223 220 217
339 340 341 341 340 339 339 337 337 336 335 333 332 332 331 330 330 330 330 330 328 326 323 321 317 313 308 303 300 299 300 303 307 310 311 308 304 301 299 298 300 302 301 300 301 302 301 301 301 301 302 303 306 310 313 316 316 312 307 303 299 297 295 291 285 281 282 286 291 293 292 288 281 272 263 253 244 238 234 232 229 227 226 223 221 218
341 340 341 341 340 339 337 336 335 334 333 332 330 329 328 327 327 327 327 326 325 324 322 321 319 316 312 308 303 300 300 303 307 310 312 311 307 302 298 297 299 300 298 297 297 298 298 298 299 299 298 296 299 306 312 315 314 310 305 301 297 293 291 288 283 278 277 282 291 299 302 298 290 283 278 272 261 249 241 235 231 228 226 224 222 220
341 340 340 340 340 339 336 334 333 332 331 329 327 325 325 325 326 326 324 323 323 323 322 321 320 318 316 314 310 307 306 307 309 312 315 316 314 310 304 302 304 304 302 299 297 296 296 296 296 297 297 295 297 301 307 311 311 308 304 301 296 291 286 284 281 277 275 279 289 300 307 309 305 296 287 278 268 256 245 238 233 229 227 225 223 221
341 339 339 339 339 337 335 332 330 329 327 325 324 323 324 325 325 324 324 323 322 322 322 321 320 318 317 316 314 312 311 312 313 315 317 319 320 319 315 312 310 310 310 307 303 299 296 295 293 293 295 297 299 302 305 307 307 306 306 303 297 290 284 282 279 275 272 274 280 291 301 310 312 307 296 282 267 253 242 236 232 229 225 224 223 222
339 338 337 337 336 334 332 329 327 325 324 324 324 324 326 326 325 325 325 325 324 324 324 323 321 319 317 316 316 315 315 316 317 318 319 320 322 323 321 318 314 313 313 311 309 305 301 298 296 295 296 298 301 303 305 304 304 304 305 302 297 292 288 285 280 275 271 269 272 280 293 305 310 309 301 287 270 254 243 235 230 227 223 219 217 217
338 337 335 335 333 332 330 328 326 325 324 324 325 327 328 328 328 328 328 327 327 328 328 327 326 323 321 320 319 320 320 320 320 321 322 324 326 327 327 324 320 316 314 312 310 307 303 300 298 299 300 301 303 304 304 304 304 304 302 298 294 293 294 290 285 279 275 270 269 274 286 297 304 305 300 291 277 264 252 241 233 227 222 218 214 211
337 335 333 332 331 329 328 327 326 327 327 327 328 328 328 329 329 328 327 328 328 329 330 330 329 326 324 323 323 324 325 325 324 325 326 329 332 334 333 331 327 322 318 313 310 307 304 301 298 298 300 304 307 308 308 309 310 309 304 299 297 297 296 292 287 281 275 271 268 271 279 288 295 299 298 292 284 273 263 250 239 230 223 217 214 211
334 332 330 329 329 329 328 329 330 330 330 330 330 329 329 329 328 327 327 326 326 328 329 330 329 326 324 324 325 326 327 328 328 329 331 333 336 337 337 335 333 330 324 316 311 309 308 305 301 298 300 303 304 305 306 310 313 313 311 309 306 303 298 295 294 290 281 275 271 271 275 282 290 296 297 295 289 280 269 257 245 235 227 220 215 212
330 329 329 328 328 329 329 331 331 332 331 329 327 327 328 329 329 328 327 325 325 326 327 328 327 326 325 325 326 327 328 328 330 332 334 336 338 338 338 337 337 336 332 323 315 311 311 308 305 303 302 301 299 298 300 305 309 312 313 313 310 305 297 297 300 300 295 290 284 281 280 284 289 293 295 294 290 283 272 260 248 239 231 224 218 214
328 329 329 329 330 330 330 330 330 330 329 329 327 327 327 328 329 328 325 325 325 326 327 327 327 327 326 326 327 327 328 329 330 332 334 337 338 339 339 338 337 337 334 328 321 315 310 306 305 305 304 300 296 293 294 298 303 308 311 312 310 304 296 294 295 295 295 295 294 291 290 289 289 288 288 288 286 280 272 261 250 240 233 227 221 215
329 329 329 330 330 329 328 329 329 328 328 328 328 327 327 328 328 327 326 326 325 324 324 325 326 325 323 324 325 327 328 329 330 331 333 334 336 337 338 337 336 334 331 326 321 316 309 303 301 300 300 299 296 292 289 291 297 304 310 314 313 309 303 298 295 293 294 294 295 294 294 292 287 281 277 279 281 280 275 265 253 241 233 227 221 216
328 328 327 327 327 327 327 328 328 328 327 326 326 326 327 328 328 328 327 327 326 324 324 325 325 323 321 322 323 324 325 325 327 329 330 332 333 335 336 335 334 332 329 325 321 316 311 306 302 298 294 292 291 290 289 289 292 298 306 313 316 316 312 307 304 301 299 297 295 295 295 290 282 273 270 273 276 277 275 269 258 246 235 227 221 216
325 324 324 324 324 324 325 326 327 326 325 325 325 326 326 327 328 327 326 326 326 325 325 325 325 323 321 321 322 322 321 321 323 325 327 329 331 332 332 333 333 332 331 329 326 321 317 313 307 300 290 283 281 283 286 287 289 294 300 307 312 315 316 316 317 315 311 304 300 298 294 286 277 270 267 266 267 269 270 268 261 250 238 228 221 216
322 321 321 321 321 321 322 323 323 324 323 323 323 324 325 326 327 326 324 324 324 324 324 324 323 322 321 321 321 322 322 321 322 323 324 326 328 329 330 331 331 331 331 330 330 329 326 323 318 311 300 287 279 277 283 287 291 295 298 301 304 308 311 316 320 322 320 314 307 301 294 285 278 273 267 261 259 260 263 263 260 253 242 231 222 216
320 320 320 319 318 318 318 319 319 319 320 321 321 321 322 324 324 324 323 323 323 323 322 322 321 320 319 319 320 322 322 322 322 322 323 325 326 327 328 328 329 330 330 331 332 333 332 330 327 325 322 313 301 293 292 294 297 300 300 301 303 306 308 311 316 320 321 317 312 304 296 287 280 273 265 258 255 255 256 256 255 251 246 235 225 218
319 319 319 318 316 315 315 316 316 315 316 317 318 319 320 320 321 322 322 322 322 322 320 320 319 318 317 317 319 320 321 321 320 320 321 322 324 324 325 325 327 329 330 331 332 334 335 334 331 327 324 324 326 322 315 310 309 309 308 311 317 321 320 318 318 319 318 316 312 306 298 289 279 269 261 255 252 251 250 249 248 246 244 238 229 222